Retour au catalogue

SL-8 DEB

ActifLEO
NORAD 24974·DEBRIS·🇷🇺 Russia

Lancé Aug 12, 1992 depuis Plesetsk Cosmodrome

Loading…

Prochains Passages (prochaines 24 heures)

TLE

FraisSource: Space-Track

Époque: Sep 14, 2026, 08:57 UTC

1 24974U 92053C   26257.37333080  .00000531  00000-0  19202-3 0  9990
2 24974  74.0517 223.7699 0022228 212.3846 300.8783 14.35819022534402

Suivez SL-8 DEB en temps réel avec AllMySat

Download on the App Store